Previsão horária em Cerritos

Hoje, 27 Julho, Terça-feira

Tempo Temperatura Precipitação Vento Pressão Humidade
00:00 +21°C° 0 mm 1 m/s 666 mmHg 87%
01:00 +21°C° 0 mm 1 m/s 666 mmHg 88%
02:00 +18°C° 0 mm 0 m/s 666 mmHg 88%
03:00 +18°C° 0 mm 0 m/s 666 mmHg 89%
04:00 +20°C° 0 mm 1 m/s 666 mmHg 89%
05:00 +19°C° 0 mm 1 m/s 666 mmHg 90%
06:00 +20°C° 0 mm 0 m/s 666 mmHg 80%
07:00 +22°C° 0 mm 0 m/s 667 mmHg 70%
08:00 +24°C° 0 mm 0 m/s 668 mmHg 61%
09:00 +27°C° 0 mm 1 m/s 668 mmHg 53%
10:00 +29°C° 0 mm 2 m/s 668 mmHg 46%
11:00 +31°C° 0 mm 3 m/s 668 mmHg 39%
12:00 +33°C° 0 mm 3 m/s 667 mmHg 36%
13:00 +34°C° 0 mm 4 m/s 667 mmHg 33%
14:00 +34°C° 0 mm 4 m/s 666 mmHg 31%
15:00 +33°C° 0 mm 5 m/s 666 mmHg 36%
16:00 +30°C° 0 mm 6 m/s 666 mmHg 41%
17:00 +29°C° 0 mm 7 m/s 666 mmHg 46%
18:00 +27°C° 0.6 mm 6 m/s 666 mmHg 56%
19:00 +25°C° 0.6 mm 4 m/s 666 mmHg 67%
20:00 +23°C° 0.6 mm 2 m/s 667 mmHg 78%
21:00 +23°C° 0.6 mm 2 m/s 667 mmHg 80%
22:00 +22°C° 0.6 mm 1 m/s 667 mmHg 82%
23:00 +22°C° 0.6 mm 1 m/s 667 mmHg 84%

Amanhã, 28 Julho, Quarta-feira

Tempo Temperatura Precipitação Vento Pressão Humidade
00:00 +22°C° 0 mm 1 m/s 666 mmHg 86%
01:00 +19°C° 0 mm 0 m/s 666 mmHg 87%
02:00 +19°C° 0 mm 0 m/s 666 mmHg 89%
03:00 +18°C° 0 mm 0 m/s 666 mmHg 89%
04:00 +18°C° 0 mm 0 m/s 666 mmHg 90%
05:00 +18°C° 0 mm 0 m/s 666 mmHg 91%
06:00 +20°C° 0 mm 0 m/s 667 mmHg 83%
07:00 +21°C° 0 mm 0 m/s 667 mmHg 76%
08:00 +23°C° 0 mm 0 m/s 668 mmHg 68%
09:00 +27°C° 0 mm 1 m/s 668 mmHg 60%
10:00 +28°C° 0 mm 2 m/s 668 mmHg 52%
11:00 +30°C° 0 mm 3 m/s 668 mmHg 45%
12:00 +31°C° 0 mm 3 m/s 668 mmHg 41%
13:00 +32°C° 0 mm 4 m/s 667 mmHg 38%
14:00 +33°C° 0 mm 4 m/s 667 mmHg 35%
15:00 +32°C° 0 mm 4 m/s 666 mmHg 41%
16:00 +29°C° 0 mm 5 m/s 666 mmHg 46%
17:00 +28°C° 0 mm 5 m/s 666 mmHg 52%
18:00 +26°C° 0.3 mm 4 m/s 666 mmHg 62%
19:00 +25°C° 0.3 mm 4 m/s 666 mmHg 71%
20:00 +22°C° 0.3 mm 3 m/s 666 mmHg 81%
21:00 +21°C° 0.1 mm 2 m/s 666 mmHg 83%
22:00 +21°C° 0.1 mm 2 m/s 666 mmHg 86%
23:00 +21°C° 0.1 mm 1 m/s 666 mmHg 89%

Depois de amanhã, 29 Julho, Quinta-feira

Tempo Temperatura Precipitação Vento Pressão Humidade
00:00 +21°C° 0.1 mm 1 m/s 666 mmHg 90%
01:00 +21°C° 0.1 mm 1 m/s 666 mmHg 91%
02:00 +21°C° 0.1 mm 1 m/s 666 mmHg 91%
03:00 +21°C° 0.1 mm 1 m/s 666 mmHg 92%
04:00 +20°C° 0.1 mm 1 m/s 666 mmHg 93%
05:00 +18°C° 0.1 mm 0 m/s 666 mmHg 94%
06:00 +20°C° 0 mm 0 m/s 667 mmHg 86%
07:00 +21°C° 0 mm 0 m/s 667 mmHg 79%
08:00 +22°C° 0 mm 0 m/s 667 mmHg 72%
09:00 +26°C° 0 mm 1 m/s 668 mmHg 63%
10:00 +27°C° 0 mm 3 m/s 668 mmHg 55%
11:00 +29°C° 0 mm 4 m/s 668 mmHg 47%
12:00 +30°C° 0 mm 4 m/s 667 mmHg 43%
13:00 +32°C° 0 mm 5 m/s 667 mmHg 39%
14:00 +33°C° 0 mm 6 m/s 667 mmHg 36%
15:00 +32°C° 0 mm 7 m/s 667 mmHg 40%
16:00 +30°C° 0 mm 7 m/s 666 mmHg 45%
17:00 +28°C° 0 mm 8 m/s 666 mmHg 49%
18:00 +27°C° 0 mm 6 m/s 667 mmHg 59%
19:00 +25°C° 0 mm 5 m/s 667 mmHg 68%
20:00 +22°C° 0 mm 3 m/s 667 mmHg 78%
21:00 +21°C° 0.1 mm 2 m/s 667 mmHg 82%
22:00 +21°C° 0.1 mm 2 m/s 667 mmHg 87%
23:00 +21°C° 0.1 mm 1 m/s 667 mmHg 92%

30 Julho, Sexta-feira

Tempo Temperatura Precipitação Vento Pressão Humidade
00:00 +21°C° 0.1 mm 1 m/s 667 mmHg 93%
01:00 +21°C° 0.1 mm 1 m/s 667 mmHg 93%
02:00 +20°C° 0.1 mm 1 m/s 666 mmHg 93%
03:00 +18°C° 0.1 mm 0 m/s 667 mmHg 94%
04:00 +18°C° 0.1 mm 0 m/s 667 mmHg 94%
05:00 +18°C° 0.1 mm 0 m/s 667 mmHg 94%
06:00 +21°C° 0 mm 1 m/s 667 mmHg 85%
07:00 +23°C° 0 mm 1 m/s 668 mmHg 77%
08:00 +24°C° 0 mm 1 m/s 669 mmHg 68%
09:00 +26°C° 0 mm 2 m/s 669 mmHg 61%
10:00 +28°C° 0 mm 4 m/s 669 mmHg 53%
11:00 +29°C° 0 mm 5 m/s 669 mmHg 45%
12:00 +30°C° 0 mm 5 m/s 668 mmHg 44%
13:00 +30°C° 0 mm 6 m/s 668 mmHg 42%
14:00 +32°C° 0 mm 7 m/s 667 mmHg 40%
15:00 +31°C° 0 mm 8 m/s 667 mmHg 45%
16:00 +29°C° 0 mm 8 m/s 667 mmHg 50%
17:00 +28°C° 0 mm 8 m/s 667 mmHg 55%
18:00 +26°C° 0.7 mm 6 m/s 668 mmHg 66%
19:00 +23°C° 0.7 mm 4 m/s 668 mmHg 77%
20:00 +21°C° 0.7 mm 3 m/s 668 mmHg 88%
21:00 +21°C° 0.5 mm 2 m/s 668 mmHg 90%
22:00 +21°C° 0.5 mm 1 m/s 668 mmHg 92%
23:00 +21°C° 0.5 mm 1 m/s 668 mmHg 93%

31 Julho, Sábado

Tempo Temperatura Precipitação Vento Pressão Humidade
00:00 +21°C° 0.1 mm 1 m/s 668 mmHg 94%
01:00 +19°C° 0.1 mm 0 m/s 668 mmHg 94%
02:00 +18°C° 0.1 mm 0 m/s 667 mmHg 94%
03:00 +18°C° 0 mm 0 m/s 668 mmHg 94%
04:00 +18°C° 0 mm 0 m/s 668 mmHg 94%
05:00 +18°C° 0 mm 0 m/s 668 mmHg 94%
06:00 +19°C° 0 mm 0 m/s 668 mmHg 86%
07:00 +21°C° 0 mm 0 m/s 669 mmHg 78%
08:00 +22°C° 0 mm 0 m/s 670 mmHg 70%
09:00 +26°C° 0 mm 1 m/s 669 mmHg 61%
10:00 +28°C° 0 mm 2 m/s 669 mmHg 51%
11:00 +30°C° 0 mm 3 m/s 669 mmHg 42%
12:00 +32°C° 0 mm 4 m/s 669 mmHg 38%
13:00 +33°C° 0 mm 4 m/s 669 mmHg 34%
14:00 +34°C° 0 mm 5 m/s 668 mmHg 31%
15:00 +33°C° 0 mm 6 m/s 668 mmHg 34%
16:00 +32°C° 0 mm 7 m/s 668 mmHg 37%
17:00 +29°C° 0 mm 8 m/s 668 mmHg 40%
18:00 +27°C° 0 mm 6 m/s 668 mmHg 51%
19:00 +25°C° 0 mm 4 m/s 668 mmHg 63%
20:00 +23°C° 0 mm 2 m/s 668 mmHg 75%
21:00 +21°C° 0 mm 2 m/s 668 mmHg 79%
22:00 +22°C° 0 mm 1 m/s 668 mmHg 83%
23:00 +22°C° 0 mm 1 m/s 668 mmHg 87%

1 Agosto, Domingo

Tempo Temperatura Precipitação Vento Pressão Humidade
00:00 +21°C° 0 mm 1 m/s 668 mmHg 87%
01:00 +21°C° 0 mm 1 m/s 668 mmHg 88%
02:00 +19°C° 0 mm 0 m/s 667 mmHg 89%
03:00 +21°C° 0 mm 1 m/s 667 mmHg 89%
04:00 +21°C° 0 mm 1 m/s 667 mmHg 88%
05:00 +21°C° 0 mm 1 m/s 667 mmHg 87%
06:00 +23°C° 0 mm 1 m/s 668 mmHg 80%
07:00 +24°C° 0 mm 1 m/s 669 mmHg 73%
08:00 +25°C° 0 mm 1 m/s 669 mmHg 65%
09:00 +27°C° 0 mm 2 m/s 669 mmHg 59%
10:00 +29°C° 0 mm 3 m/s 669 mmHg 52%
11:00 +30°C° 0 mm 4 m/s 669 mmHg 45%
12:00 +32°C° 0 mm 4 m/s 668 mmHg 41%
13:00 +33°C° 0 mm 5 m/s 668 mmHg 38%
14:00 +34°C° 0 mm 5 m/s 667 mmHg 34%
15:00 +33°C° 0 mm 6 m/s 667 mmHg 37%
16:00 +32°C° 0 mm 7 m/s 667 mmHg 40%
17:00 +31°C° 0 mm 8 m/s 667 mmHg 42%
18:00 +28°C° 0 mm 6 m/s 667 mmHg 52%
19:00 +26°C° 0 mm 4 m/s 667 mmHg 62%
20:00 +24°C° 0 mm 3 m/s 667 mmHg 72%
21:00 +23°C° 0 mm 2 m/s 667 mmHg 76%
22:00 +23°C° 0 mm 2 m/s 667 mmHg 80%
23:00 +22°C° 0 mm 1 m/s 667 mmHg 84%
Mostrar mais

Necessitamos do seu Consentimento

A Meteoprog e os seus Fornecedores de Serviços podem armazenar e aceder a dados pessoais como cookies, identificadores do dispositivo ou outras tecnologias semelhantes existentes no seu dispositivo e processar estes dados para personalizar conteúdos e anúncios, assim como funcionalidades nas redes sociais e análise de tráfego.

  • Armazenar e/ou aceder a informações no seu dispositivo

    Os cookies, identificadores do dispositivo ou outras informações podem ser armazenados ou acedidos no seu dispositivo, para os fins acima indicados.

  • Anúncios e conteúdos personalizados, medição de anúncios e conteúdos, dados sobre o público-alvo e desenvolvimento de produtos

    Os anúncios e os conteúdos podem ser personalizados com base num perfil. Podem ser adicionados dados adicionais para uma maior personalização dos anúncios e dos conteúdos. A eficácia dos anúncios e dos conteúdos pode ser medida. Podem ser obtidas informações sobre o público que visualizou os anúncios e os conteúdos. Estes dados podem ser usados para desenvolver ou melhorar sistemas, softwares ou a experiência do utilizador.

Ao clicar em "Eu concordo”, permitirá o uso de cookies, identificadores do dispositivo e web beacons mencionados ou outras tecnologias semelhantes. As configurações do navegador do seu dispositivo podem ser alteradas.

Para certos fins, podem ser invocados interesses legítimos ao invés de consentimento. Pode ler mais informação sobre este assunto na nossa Política de Privacidade e Cookies.